Gloucester, Virginia, United States (23061)
Lat: 37.41N, Lon: 76.53W
Wx Zone: VAZ084
Local Info
Past Weather Observations for Today

NOTE: This archive is for the closest National Weather Service station to Gloucester. Information may differ from the station used for current weather conditions.

Click here for Long-term Archive

Time Weather Temperature Dewpoint Humidity Pressure Winds Precip Visibility
16:55
Clear
84°F / 29°C 59°F / 15°C 43% 29.71 in
(1006 mb)
S 4.6 mph
(S 7 kph)
- 10SM
16:35
Clear
84°F / 29°C 59°F / 15°C 43% 29.71 in
(1006 mb)
S 4.6 mph
(S 7 kph)
- 10SM
16:15
Clear
84°F / 29°C 57°F / 14°C 40% 29.71 in
(1006 mb)
S 5.8 mph
(S 9 kph)
- 10SM
15:55
Clear
86°F / 30°C 57°F / 14°C 38% 29.71 in
(1006 mb)
SSE 4.6 mph
(SSE 7 kph)
- 10SM
15:35
Clear
86°F / 30°C 57°F / 14°C 38% 29.71 in
(1006 mb)
SSE 5.8 mph
(SSE 9 kph)
- 10SM
15:15
Clear
86°F / 30°C 55°F / 13°C 35% 29.71 in
(1006 mb)
Calm - 10SM
14:55
Clear
84°F / 29°C 55°F / 13°C 37% 29.71 in
(1006 mb)
Calm - 10SM
14:35
Clear
84°F / 29°C 57°F / 14°C 40% 29.74 in
(1007 mb)
NNW 3.5 mph
(NNW 6 kph)
- 10SM
14:15
Clear
84°F / 29°C 57°F / 14°C 40% 29.71 in
(1006 mb)
WNW 3.5 mph
(WNW 6 kph)
- 10SM
13:55
Clear
84°F / 29°C 57°F / 14°C 40% 29.74 in
(1007 mb)
W 4.6 mph
(W 7 kph)
- 10SM
13:35
Clear
82°F / 28°C 57°F / 14°C 42% 29.74 in
(1007 mb)
NW 3.5 mph
(NW 6 kph)
- 10SM
13:15
Clear
82°F / 28°C 57°F / 14°C 42% 29.74 in
(1007 mb)
NNW 4.6 mph
(NNW 7 kph)
- 10SM
12:55
Clear
82°F / 28°C 59°F / 15°C 45% 29.77 in
(1008 mb)
SW 4.6 mph
(SW 7 kph)
- 10SM
12:35
Clear
82°F / 28°C 59°F / 15°C 45% 29.77 in
(1008 mb)
N 5.8 mph
(N 9 kph)
- 10SM
12:15
Clear
82°F / 28°C 61°F / 16°C 48% 29.8 in
(1009 mb)
WNW 6.9 mph
(WNW 11 kph)
- 10SM
11:55
Clear
81°F / 27°C 63°F / 17°C 54% 29.8 in
(1009 mb)
NW 6.9 mph
(NW 11 kph)
- 10SM
11:35
Clear
79°F / 26°C 64°F / 18°C 61% 29.8 in
(1009 mb)
W 6.9 mph
(W 11 kph)
- 10SM
11:15
Clear
79°F / 26°C 64°F / 18°C 61% 29.83 in
(1010 mb)
NNW 5.8 mph
(NNW 9 kph)
- 10SM
10:55
Clear
77°F / 25°C 64°F / 18°C 65% 29.83 in
(1010 mb)
NW 6.9 mph
(NW 11 kph)
- 10SM
10:35
Partly Cloudy
77°F / 25°C 66°F / 19°C 69% 29.83 in
(1010 mb)
WNW 8.1 mph
(WNW 13 kph)
- 10SM
10:15
Overcast
73°F / 23°C 66°F / 19°C 78% 29.83 in
(1010 mb)
NW 5.8 mph
(NW 9 kph)
- 10SM
09:55
Overcast
72°F / 22°C 68°F / 20°C 88% 29.86 in
(1011 mb)
NW 5.8 mph
(NW 9 kph)
- 10SM
09:35
Overcast
72°F / 22°C 68°F / 20°C 88% 29.86 in
(1011 mb)
NW 4.6 mph
(NW 7 kph)
- 10SM
09:15
Overcast
70°F / 21°C 68°F / 20°C 94% 29.86 in
(1011 mb)
Calm - 10SM
08:55
Overcast
70°F / 21°C 66°F / 19°C 88% 29.86 in
(1011 mb)
NNW 3.5 mph
(NNW 6 kph)
- 10SM
08:35
Overcast
70°F / 21°C 68°F / 20°C 94% 29.86 in
(1011 mb)
N 3.5 mph
(N 6 kph)
- 10SM
08:15
Overcast
68°F / 20°C 66°F / 19°C 94% 29.89 in
(1012 mb)
NW 5.8 mph
(NW 9 kph)
- 7SM
07:55
Overcast
68°F / 20°C 66°F / 19°C 94% 29.89 in
(1012 mb)
NNW 4.6 mph
(NNW 7 kph)
- 7SM
07:35
Mostly Cloudy
68°F / 20°C 66°F / 19°C 94% 29.89 in
(1012 mb)
NW 5.8 mph
(NW 9 kph)
- 5SM
07:15
Partly Cloudy
68°F / 20°C 66°F / 19°C 94% 29.89 in
(1012 mb)
NW 3.5 mph
(NW 6 kph)
- 5SM
06:55
Clear
68°F / 20°C 64°F / 18°C 88% 29.89 in
(1012 mb)
NW 3.5 mph
(NW 6 kph)
- 7SM
06:35
Clear
68°F / 20°C 64°F / 18°C 88% 29.89 in
(1012 mb)
Calm - 5SM
06:15
Clear
68°F / 20°C 64°F / 18°C 88% 29.89 in
(1012 mb)
NNW 3.5 mph
(NNW 6 kph)
- 5SM
05:55
Clear
68°F / 20°C 64°F / 18°C 88% 29.89 in
(1012 mb)
Calm - 7SM
05:35
Clear
68°F / 20°C 66°F / 19°C 94% 29.89 in
(1012 mb)
Calm - 10SM
05:15
Clear
68°F / 20°C 66°F / 19°C 94% 29.89 in
(1012 mb)
Calm - 10SM
04:55
Clear
68°F / 20°C 64°F / 18°C 88% 29.89 in
(1012 mb)
Calm - 10SM
04:35
Clear
68°F / 20°C 64°F / 18°C 88% 29.89 in
(1012 mb)
Calm - 7SM
04:15
Clear
66°F / 19°C 64°F / 18°C 94% 29.89 in
(1012 mb)
Calm - 7SM
03:55
Clear
66°F / 19°C 64°F / 18°C 94% 29.89 in
(1012 mb)
Calm - 7SM
03:35
Clear
66°F / 19°C 64°F / 18°C 94% 29.92 in
(1013 mb)
NW 4.6 mph
(NW 7 kph)
- 7SM
03:15
Clear
66°F / 19°C 64°F / 18°C 94% 29.92 in
(1013 mb)
NNW 3.5 mph
(NNW 6 kph)
- 7SM
02:55
Clear
66°F / 19°C 64°F / 18°C 94% 29.95 in
(1014 mb)
NW 3.5 mph
(NW 6 kph)
- 10SM
02:35
Partly Cloudy
66°F / 19°C 64°F / 18°C 94% 29.95 in
(1014 mb)
NNW 3.5 mph
(NNW 6 kph)
- 10SM
02:15
Partly Cloudy
66°F / 19°C 63°F / 17°C 88% 29.98 in
(1015 mb)
E 3.5 mph
(E 6 kph)
- 10SM
01:55
Clear
68°F / 20°C 64°F / 18°C 88% 29.95 in
(1014 mb)
Calm - 10SM
01:35
Clear
68°F / 20°C 64°F / 18°C 88% 29.98 in
(1015 mb)
Calm - 10SM
01:15
Clear
68°F / 20°C 64°F / 18°C 88% 29.98 in
(1015 mb)
Calm - 10SM
00:55
Partly Cloudy
68°F / 20°C 64°F / 18°C 88% 29.98 in
(1015 mb)
NNW 3.5 mph
(NNW 6 kph)
- 10SM
00:35
Mostly Cloudy
68°F / 20°C 64°F / 18°C 88% 30.01 in
(1016 mb)
NNW 3.5 mph
(NNW 6 kph)
- 10SM
00:15
Overcast
68°F / 20°C 66°F / 19°C 94% 30.01 in
(1016 mb)
NNW 4.6 mph
(NNW 7 kph)
- 10SM
Time Weather Temperature Dewpoint Humidity Pressure Winds Precip Visibility


Weather for websites

WeatherForYou.com, LLC is not responsible for any damages or problems caused by this service. Current weather conditions are obtained from the closest station including government and personal stations which may have varying degrees of accuracy. Weather forecasts are derived from the NOAA NDFD. Like all things, this site belongs to Jesus Christ... He just trusts me to maintain it. If you have any questions or comments email webmaster@weatherforyou.com

Copyright © 2014, WeatherForYou.com LLC. All rights reserved.